Flag for U.S.A. Weather past 2 weeks in Stroudsburg, Pennsylvania, U.S.A.

Now
17 °F

Overcast.


Feels Like: 9 °F
Forecast: 9 / 21 °F
Wind: 6 mph from Northwest

Location: Pocono Mountains Municipal Airport

Current Time: Feb 26, 2015 at 7:44:00 PM

Latest Report: Feb 26, 2015 at 6:53 PM


Visibility: 10 mi

Pressure: 30.02 "Hg

Humidity: 74%

Dew point: 10 °F

Location of StroudsburgLocation

Historic Weather in Stroudsburg — Graph

°F

Stroudsburg temperature yesterday

Maximum temperature yesterday: 28 °F (at 2:53 PM)
Minimum temperature yesterday: 9 °F (at 6:53 AM)
Average temperature yesterday: 19 °F

Past Weeks' High & Low Weather Summary

 TemperatureHumidityPressure
High38 °F (Feb 22, 2:53 PM)91% (Feb 14, 7:53 PM)30.43 "Hg (Feb 14, 7:53 PM)
Low-14 °F (Feb 24, 6:53 AM)27% (Feb 24, 12:53 PM)29.42 "Hg (Feb 14, 6:03 PM)
Average11 °F64%29.97 "Hg
* Reported Feb 11 5:53 PM — Feb 26 5:53 PM, Stroudsburg, Weather by CustomWeather, © 2015

Note: Actual official high and low records may vary slightly from our data, if they occured in-between our weather recording intervals... More about our weather records

Advertising

Stroudsburg weather history for previous 24 hours

 ConditionsComfort  
Time TempWeatherWind HumidityBarometerVisibility
5:53 PM
Thu, Feb 26
18 °FMostly cloudy.7 mph71%29.99 "Hg10 mi
4:53 PM20 °FOvercast.8 mph68%29.98 "Hg10 mi
3:53 PM20 °FOvercast.12 mph71%29.95 "Hg10 mi
2:53 PM22 °FLight snow. Overcast.8 mph66%29.92 "Hg10 mi
1:53 PM22 °FLight snow. Overcast.10 mph62%29.90 "Hg10 mi
12:53 PM22 °FCloudy.5 mph57%29.91 "Hg10 mi
11:53 AM18 °FMostly cloudy.6 mph68%29.95 "Hg9 mi
10:57 AM15 °FLight snow. Mostly cloudy.6 mph64%29.85 "Hg2 mi
9:53 AM18 °FMostly cloudy.3 mph45%29.97 "Hg10 mi
8:53 AM14 °FMostly cloudy.6 mph51%29.98 "Hg10 mi
7:53 AM13 °FOvercast.3 mph54%29.97 "Hg10 mi
6:53 AM13 °FOvercast.3 mph54%29.97 "Hg10 mi
5:53 AM12 °FOvercast.5 mph56%29.96 "Hg10 mi
4:53 AM12 °FOvercast.7 mph53%29.93 "Hg10 mi
3:53 AM12 °FPassing clouds.5 mph51%29.97 "Hg10 mi
2:53 AM12 °FPassing clouds.7 mph51%29.97 "Hg10 mi
1:53 AM13 °FClear.10 mph46%29.97 "Hg10 mi
12:53 AM15 °FClear.9 mph44%29.99 "Hg10 mi
11:53 PM
Wed, Feb 25
16 °FClear.10 mph45%29.98 "Hg10 mi
10:53 PM18 °FClear.9 mph47%29.94 "Hg10 mi
9:53 PM14 °FClear.3 mph67%29.98 "Hg10 mi
8:53 PM14 °FClear.No wind67%29.97 "Hg10 mi
7:53 PM17 °FClear.No wind62%29.98 "Hg10 mi
Weather by CustomWeather, © 2015

See weather overviewHow to use our weather pages